When you browse on this site, cookies collect data to enhance your experience and personalize the content and advertising you see.
Visit our Privacy Policy to learn more. By continuing to use the site, you agree to this use of cookies and data.
  • în România
  • Lista ţărilor
  • Pe 7 zile
  • Temperatura apei
  • Hartă satelitară
  • Meteo pe hartă
  • Widget-uri
  • user-avatar
    Intrare

    Meteo pe oră la Sovetskoe

    Astăzi, 23 Aprilie, Marţi

    Timp Temperatura Precipitaţii Vânt Presiune Umiditate
    00:00 +11°C° 0 mm 1 m/s 761 mmHg 42%
    01:00 +11°C° 0 mm 1 m/s 761 mmHg 43%
    02:00 +11°C° 0 mm 1 m/s 761 mmHg 45%
    03:00 +12°C° 0 mm 1 m/s 761 mmHg 46%
    04:00 +12°C° 0 mm 2 m/s 761 mmHg 49%
    05:00 +12°C° 0 mm 2 m/s 761 mmHg 52%
    06:00 +12°C° 0 mm 2 m/s 761 mmHg 55%
    07:00 +13°C° 0 mm 2 m/s 761 mmHg 51%
    08:00 +13°C° 0 mm 3 m/s 761 mmHg 47%
    09:00 +16°C° 0 mm 3 m/s 761 mmHg 43%
    10:00 +15°C° 0 mm 4 m/s 761 mmHg 40%
    11:00 +17°C° 0 mm 4 m/s 761 mmHg 37%
    12:00 +18°C° 0 mm 4 m/s 761 mmHg 34%
    13:00 +17°C° 0 mm 5 m/s 760 mmHg 33%
    14:00 +19°C° 0 mm 5 m/s 760 mmHg 32%
    15:00 +19°C° 0 mm 5 m/s 760 mmHg 31%
    16:00 +19°C° 0 mm 4 m/s 760 mmHg 33%
    17:00 +18°C° 0 mm 4 m/s 760 mmHg 35%
    18:00 +17°C° 0 mm 4 m/s 759 mmHg 37%
    19:00 +16°C° 0 mm 3 m/s 759 mmHg 40%
    20:00 +16°C° 0 mm 2 m/s 760 mmHg 42%
    21:00 +15°C° 0 mm 1 m/s 760 mmHg 45%
    22:00 +14°C° 0 mm 2 m/s 760 mmHg 46%
    23:00 +14°C° 0 mm 2 m/s 759 mmHg 48%

    Mâine, 24 Aprilie, Miercuri

    Timp Temperatura Precipitaţii Vânt Presiune Umiditate
    00:00 +14°C° 0 mm 2 m/s 759 mmHg 50%
    01:00 +13°C° 0 mm 2 m/s 759 mmHg 54%
    02:00 +12°C° 0 mm 2 m/s 760 mmHg 57%
    03:00 +10°C° 0 mm 2 m/s 760 mmHg 61%
    04:00 +10°C° 0 mm 3 m/s 760 mmHg 64%
    05:00 +10°C° 0 mm 3 m/s 760 mmHg 66%
    06:00 +9°C° 0 mm 3 m/s 760 mmHg 69%
    07:00 +11°C° 0 mm 4 m/s 760 mmHg 63%
    08:00 +12°C° 0 mm 4 m/s 760 mmHg 57%
    09:00 +14°C° 0 mm 5 m/s 761 mmHg 52%
    10:00 +15°C° 0 mm 5 m/s 761 mmHg 46%
    11:00 +16°C° 0 mm 5 m/s 760 mmHg 40%
    12:00 +16°C° 0 mm 5 m/s 760 mmHg 34%
    13:00 +17°C° 0 mm 5 m/s 760 mmHg 34%
    14:00 +19°C° 0 mm 4 m/s 760 mmHg 33%
    15:00 +19°C° 0 mm 4 m/s 760 mmHg 33%
    16:00 +19°C° 0 mm 3 m/s 760 mmHg 36%
    17:00 +19°C° 0 mm 2 m/s 760 mmHg 39%
    18:00 +18°C° 0 mm 2 m/s 760 mmHg 42%
    19:00 +17°C° 0 mm 2 m/s 760 mmHg 46%
    20:00 +16°C° 0 mm 2 m/s 760 mmHg 49%
    21:00 +15°C° 0 mm 2 m/s 760 mmHg 53%
    22:00 +14°C° 0 mm 2 m/s 760 mmHg 56%
    23:00 +14°C° 0 mm 2 m/s 760 mmHg 60%

    Poimâine, 25 Aprilie, Joi

    Timp Temperatura Precipitaţii Vânt Presiune Umiditate
    00:00 +12°C° 0 mm 3 m/s 760 mmHg 63%
    01:00 +12°C° 0 mm 3 m/s 760 mmHg 65%
    02:00 +12°C° 0 mm 3 m/s 760 mmHg 67%
    03:00 +11°C° 0 mm 3 m/s 759 mmHg 69%
    04:00 +11°C° 0 mm 3 m/s 760 mmHg 69%
    05:00 +11°C° 0 mm 3 m/s 760 mmHg 69%
    06:00 +11°C° 0 mm 3 m/s 760 mmHg 70%
    07:00 +13°C° 0 mm 3 m/s 760 mmHg 63%
    08:00 +17°C° 0 mm 3 m/s 760 mmHg 57%
    09:00 +19°C° 0 mm 4 m/s 760 mmHg 51%
    10:00 +20°C° 0 mm 4 m/s 760 mmHg 46%
    11:00 +21°C° 0 mm 4 m/s 760 mmHg 41%
    12:00 +22°C° 0 mm 5 m/s 760 mmHg 36%
    13:00 +22°C° 0 mm 5 m/s 760 mmHg 35%
    14:00 +22°C° 0 mm 5 m/s 760 mmHg 34%
    15:00 +23°C° 0 mm 5 m/s 760 mmHg 32%
    16:00 +22°C° 0 mm 4 m/s 760 mmHg 35%
    17:00 +21°C° 0 mm 3 m/s 760 mmHg 38%
    18:00 +21°C° 0 mm 3 m/s 760 mmHg 41%
    19:00 +19°C° 0 mm 2 m/s 760 mmHg 45%
    20:00 +18°C° 0 mm 2 m/s 760 mmHg 49%
    21:00 +16°C° 0 mm 1 m/s 760 mmHg 53%
    22:00 +16°C° 0 mm 1 m/s 760 mmHg 56%
    23:00 +15°C° 0 mm 1 m/s 760 mmHg 58%

    26 Aprilie, Vineri

    Timp Temperatura Precipitaţii Vânt Presiune Umiditate
    00:00 +14°C° 0 mm 0 m/s 760 mmHg 60%
    01:00 +15°C° 0 mm 1 m/s 760 mmHg 60%
    02:00 +15°C° 0 mm 1 m/s 760 mmHg 60%
    03:00 +15°C° 0 mm 1 m/s 760 mmHg 60%
    04:00 +15°C° 0 mm 2 m/s 760 mmHg 61%
    05:00 +15°C° 0 mm 2 m/s 760 mmHg 62%
    06:00 +15°C° 0 mm 2 m/s 760 mmHg 62%
    07:00 +16°C° 0 mm 3 m/s 760 mmHg 58%
    08:00 +18°C° 0 mm 3 m/s 760 mmHg 53%
    09:00 +20°C° 0 mm 3 m/s 760 mmHg 48%
    10:00 +21°C° 0 mm 3 m/s 760 mmHg 44%
    11:00 +22°C° 0 mm 4 m/s 760 mmHg 40%
    12:00 +22°C° 0 mm 4 m/s 760 mmHg 36%
    13:00 +22°C° 0 mm 4 m/s 760 mmHg 38%
    14:00 +21°C° 0 mm 4 m/s 760 mmHg 40%
    15:00 +21°C° 0 mm 4 m/s 760 mmHg 42%
    16:00 +20°C° 0 mm 5 m/s 760 mmHg 44%
    17:00 +20°C° 0 mm 5 m/s 760 mmHg 45%
    18:00 +19°C° 0 mm 5 m/s 760 mmHg 47%
    19:00 +17°C° 0 mm 4 m/s 761 mmHg 50%
    20:00 +15°C° 0 mm 4 m/s 761 mmHg 53%
    21:00 +14°C° 0 mm 4 m/s 762 mmHg 56%
    22:00 +13°C° 0 mm 3 m/s 762 mmHg 58%
    23:00 +12°C° 0 mm 3 m/s 762 mmHg 59%

    27 Aprilie, Sâmbătă

    Timp Temperatura Precipitaţii Vânt Presiune Umiditate
    00:00 +12°C° 0 mm 3 m/s 762 mmHg 61%
    01:00 +11°C° 0 mm 3 m/s 762 mmHg 65%
    02:00 +12°C° 0 mm 2 m/s 762 mmHg 69%
    03:00 +10°C° 0 mm 2 m/s 762 mmHg 72%
    04:00 +10°C° 0 mm 2 m/s 762 mmHg 72%
    05:00 +10°C° 0 mm 2 m/s 762 mmHg 72%
    06:00 +12°C° 0 mm 2 m/s 762 mmHg 71%
    07:00 +12°C° 0 mm 3 m/s 762 mmHg 62%
    08:00 +14°C° 0 mm 3 m/s 762 mmHg 53%
    09:00 +17°C° 0 mm 4 m/s 762 mmHg 44%
    10:00 +18°C° 0 mm 3 m/s 762 mmHg 41%
    11:00 +19°C° 0 mm 3 m/s 761 mmHg 38%
    12:00 +20°C° 0 mm 3 m/s 761 mmHg 35%
    13:00 +21°C° 0 mm 3 m/s 760 mmHg 34%
    14:00 +21°C° 0 mm 4 m/s 760 mmHg 34%
    15:00 +22°C° 0 mm 4 m/s 759 mmHg 33%
    16:00 +21°C° 0 mm 3 m/s 759 mmHg 36%
    17:00 +21°C° 0 mm 3 m/s 759 mmHg 40%
    18:00 +20°C° 0 mm 2 m/s 758 mmHg 43%
    19:00 +19°C° 0 mm 3 m/s 758 mmHg 46%
    20:00 +18°C° 0 mm 3 m/s 758 mmHg 50%
    21:00 +17°C° 0 mm 4 m/s 758 mmHg 54%
    22:00 +15°C° 0.3 mm 4 m/s 757 mmHg 59%
    23:00 +15°C° 0.3 mm 4 m/s 757 mmHg 64%

    28 Aprilie, Duminică

    Timp Temperatura Precipitaţii Vânt Presiune Umiditate
    00:00 +14°C° 0.3 mm 4 m/s 757 mmHg 70%
    01:00 +14°C° 0.2 mm 4 m/s 756 mmHg 72%
    02:00 +14°C° 0.2 mm 3 m/s 756 mmHg 74%
    03:00 +14°C° 0.2 mm 2 m/s 756 mmHg 76%
    04:00 +14°C° 0 mm 2 m/s 756 mmHg 75%
    05:00 +15°C° 0 mm 2 m/s 756 mmHg 74%
    06:00 +14°C° 0 mm 3 m/s 756 mmHg 73%
    07:00 +16°C° 0 mm 3 m/s 756 mmHg 69%
    08:00 +17°C° 0 mm 3 m/s 756 mmHg 64%
    09:00 +19°C° 0 mm 4 m/s 756 mmHg 59%
    10:00 +20°C° 0.1 mm 4 m/s 756 mmHg 53%
    11:00 +21°C° 0.1 mm 4 m/s 755 mmHg 47%
    12:00 +22°C° 0.1 mm 5 m/s 755 mmHg 41%
    13:00 +22°C° 0 mm 4 m/s 755 mmHg 41%
    14:00 +22°C° 0 mm 4 m/s 755 mmHg 42%
    15:00 +22°C° 0 mm 3 m/s 755 mmHg 42%
    16:00 +21°C° 0 mm 3 m/s 755 mmHg 44%
    17:00 +21°C° 0 mm 3 m/s 755 mmHg 45%
    18:00 +21°C° 0 mm 2 m/s 755 mmHg 47%
    19:00 +19°C° 0 mm 2 m/s 755 mmHg 50%
    20:00 +18°C° 0 mm 2 m/s 755 mmHg 54%
    21:00 +17°C° 0 mm 2 m/s 755 mmHg 57%
    22:00 +16°C° 0 mm 2 m/s 756 mmHg 62%
    23:00 +15°C° 0 mm 2 m/s 756 mmHg 68%
    Arată mai mult